Regional Weather Roundup
Issued by NWS

Home | Current Version | Previous Version | Graphics & Text | Print | Product List | Glossary On
Versions: 1 2 3 4 5 6 7 8 9 10 11 12 13 14 15 16 17 18 19 20 21 22 23 24 25 26 27 28 29 30 31 32 33 34 35 36 37 38 39 40 41 42 43 44 45 46 47 48 49 50
000
ASUS43 KOAX 200202
RWRNE

WEATHER ROUNDUP FOR NEBRASKA
NATIONAL WEATHER SERVICE OMAHA NE
800 PM CST FRI JAN 19 2018

NOTES: SATELLITE DATA IS BEING USED TO AUGMENT CLOUD COVER ABOVE
       12000 FEET.
       "FAIR" INDICATES FEW OR NO CLOUDS BELOW 12,000 FEET WITH NO
       SIGNIFICANT WEATHER AND/OR OBSTRUCTIONS TO VISIBILITY.


NEZ001>004-019>022-054>056-200300-
NEBRASKA PANHANDLE

CITY           SKY/WX    TMP DP  RH WIND       PRES   REMARKS
SCOTTSBLUFF    CLOUDY    36  29  75 NE12      29.71R WCI  28
ALLIANCE       MOCLDY    33  30  88 CALM      29.72R
CHADRON        PTCLDY    31  28  89 CALM      29.74R
GORDON         FAIR      29  27  92 CALM      29.73S
KIMBALL        CLOUDY    46  23  41 NW9       29.72S
SIDNEY         CLOUDY    34  25  69 S3        29.73R
$$

NEZ057>060-069>072-079>082-200300-
SOUTHWEST NEBRASKA

CITY           SKY/WX    TMP DP  RH WIND       PRES   REMARKS
NORTH PLATTE   CLOUDY    41  32  70 NE12      29.72R
IMPERIAL       CLOUDY    38  29  70 W7        29.73R WCI  33
LEXINGTON      CLOUDY    37  32  82 CALM      29.72R
MCCOOK         CLOUDY    40  25  55 NE3       29.69S
OGALLALA       CLOUDY    38  31  77 CALM      29.73R
$$

NEZ005>010-023>029-035>040-094-200300-
NORTH CENTRAL NEBRASKA

CITY           SKY/WX    TMP DP  RH WIND       PRES   REMARKS
VALENTINE      CLOUDY    35  30  82 NW5       29.75R WCI  31
AINSWORTH      CLOUDY    35  32  88 CALM      29.74R
BROKEN BOW     MOCLDY    39  32  76 N9        29.73R WCI  33
O`NEILL        CLOUDY    36  33  87 NW3       29.74R
ORD            PTCLDY    34  30  85 N5        29.73R WCI  30
THEDFORD       CLOUDY    37  32  83 CALM      29.73F
$$

NEZ041-046>049-061>064-073>077-083>087-200300-
SOUTH CENTRAL NEBRASKA

CITY           SKY/WX    TMP DP  RH WIND       PRES   REMARKS
GRAND ISLAND   CLOUDY    34  30  85 W3        29.73R
AURORA         CLOUDY    37  26  66 W3        29.72R
HASTINGS       CLOUDY    33  25  72 CALM      29.72R
HEBRON         CLOUDY    34  27  77 CALM      29.73S
HOLDREGE       CLOUDY    35  26  70 NW3       29.71F
KEARNEY        CLOUDY    34  30  85 NW6       29.72S WCI  29
YORK           CLOUDY    36  28  75 SW5       29.74R WCI  32
$$

NEZ011>018-030>034-042>045-200300-
NORTHEAST NEBRASKA

CITY           SKY/WX    TMP DP  RH WIND       PRES   REMARKS
NORFOLK        CLOUDY    38  31  76 W8        29.70R WCI  32
ALBION         CLOUDY    38  32  77 NW7       29.73R WCI  33
BLAIR          CLOUDY    40  29  65 S10       29.72R WCI  34
COLUMBUS       CLOUDY    33  27  78 CALM      29.72S
FREMONT        CLOUDY    38  29  68 S5        29.72S WCI  35
TEKAMAH        CLOUDY    36  27  69 S8        29.71R WCI  30
WAYNE          PTCLDY    37  32  82 CALM      29.71R
$$

NEZ050>053-065>068-078-088>093-200300-
SOUTHEAST NEBRASKA

CITY           SKY/WX    TMP DP  RH WIND       PRES   REMARKS
LINCOLN        CLOUDY    41  27  57 SW6       29.76R
OMAHA EPPLEY   CLOUDY    37  28  70 S8        29.74R WCI  31
BEATRICE       CLOUDY    37  29  74 S7        29.75R WCI  31
FALLS CITY     CLOUDY    41  27  57 S9        29.76R
NEBRASKA CITY  CLOUDY    33  31  92 SW6       29.75S WCI  28
PLATTSMOUTH    PTCLDY    39  30  69 S9        29.74S WCI  33
$$

NEZ044-045-051>053-067-200300-
OMAHA AREA

CITY           SKY/WX    TMP DP  RH WIND       PRES   REMARKS
OMAHA EPPLEY   CLOUDY    37  28  70 S8        29.74R WCI  31
BLAIR          CLOUDY    40  29  65 S10       29.72R WCI  34
FREMONT        CLOUDY    38  29  68 S5        29.72S WCI  35
MILLARD        CLOUDY    36  28  73 CALM      29.75R
OFFUTT AFB     CLOUDY    30  27  88 SE3       29.74R
PLATTSMOUTH    PTCLDY    39  30  69 S9        29.74S WCI  33
WAHOO          FAIR      36  27  70 S5        29.73R WCI  32
$$



USA.gov is the U.S. government's official web portal to all federal, state and local government web resources and services.